AUA250 LOWG-LDDU

Flight info

Callsign AUA250
Flight time N/A
Altitude 35000
Route GRZ DCT ZAG DCT OMA DCT MSR DCT KLP
Aircraft A320/M-SDE3FGHIRWY/LB1

Departure

Time 2026-05-08 17:27
Airport Graz Airport (LOWG)

Arrival

Time N/A
Airport Dubrovnik Ruđer Bošković Airport (LDDU)
Time Latitude Longitude Altitude Speed Heading
2026-05-08 16:47 46.99748 15.44378 1108 ft 0 kts 169°
2026-05-08 17:16 46.99751 15.44377 1107 ft 3 kts 170°
2026-05-08 17:16 46.99776 15.44378 1108 ft 4 kts 193°
2026-05-08 17:16 46.99797 15.44379 1112 ft 4 kts 168°
2026-05-08 17:16 46.99823 15.44370 1107 ft 4 kts 179°
2026-05-08 17:17 46.99827 15.44351 1110 ft 4 kts 259°
2026-05-08 17:17 46.99831 15.44382 1113 ft 1 kts 259°
2026-05-08 17:17 46.99831 15.44383 1113 ft 0 kts 259°
2026-05-08 17:22 46.99830 15.44381 1113 ft 2 kts 259°
2026-05-08 17:23 46.99819 15.44298 1112 ft 11 kts 259°
2026-05-08 17:23 46.99815 15.44200 1116 ft 9 kts 290°
2026-05-08 17:23 46.99876 15.44152 1112 ft 16 kts 349°
2026-05-08 17:23 46.99992 15.44122 1113 ft 17 kts 348°
2026-05-08 17:24 47.00105 15.44091 1117 ft 16 kts 349°
2026-05-08 17:24 47.00208 15.44061 1120 ft 14 kts 348°
2026-05-08 17:24 47.00299 15.44017 1119 ft 13 kts 323°
2026-05-08 17:24 47.00351 15.43926 1118 ft 11 kts 305°
2026-05-08 17:25 47.00416 15.43788 1124 ft 20 kts 304°
2026-05-08 17:25 47.00417 15.43637 1124 ft 13 kts 239°
2026-05-08 17:25 47.00365 15.43618 1126 ft 0 kts 168°
2026-05-08 17:26 47.00345 15.43624 1123 ft 14 kts 168°
2026-05-08 17:26 46.99982 15.43725 1114 ft 89 kts 169°
2026-05-08 17:27 46.99174 15.43949 1110 ft 146 kts 169°
2026-05-08 17:27 46.98063 15.44295 1355 ft 170 kts 167°
2026-05-08 17:27 46.96913 15.44639 1971 ft 172 kts 168°
2026-05-08 17:27 46.95742 15.44950 2749 ft 170 kts 168°
2026-05-08 17:28 46.94606 15.45530 3255 ft 182 kts 152°
2026-05-08 17:28 46.93392 15.46382 3522 ft 205 kts 155°
2026-05-08 17:28 46.92011 15.47286 3847 ft 229 kts 155°
2026-05-08 17:28 46.90471 15.48279 4296 ft 252 kts 156°
2026-05-08 17:29 46.88836 15.49331 5047 ft 260 kts 156°
2026-05-08 17:29 46.87164 15.50412 5852 ft 266 kts 156°
2026-05-08 17:29 46.85450 15.51524 6633 ft 273 kts 156°
2026-05-08 17:29 46.83696 15.52661 7399 ft 278 kts 156°
2026-05-08 17:30 46.81907 15.53821 8177 ft 284 kts 156°
2026-05-08 17:30 46.80083 15.55006 8961 ft 289 kts 156°
2026-05-08 17:30 46.78230 15.56207 9743 ft 294 kts 156°
2026-05-08 17:30 46.76330 15.57440 10305 ft 308 kts 156°
2026-05-08 17:31 46.74300 15.58760 10547 ft 331 kts 156°
2026-05-08 17:31 46.72130 15.60168 10845 ft 349 kts 156°
2026-05-08 17:31 46.69895 15.61612 11531 ft 353 kts 157°
2026-05-08 17:31 46.67643 15.63064 12311 ft 355 kts 157°
2026-05-08 17:32 46.65375 15.64526 13071 ft 357 kts 157°
2026-05-08 17:32 46.63093 15.65997 13828 ft 360 kts 158°
2026-05-08 17:32 46.60790 15.67482 14475 ft 363 kts 158°
2026-05-08 17:32 46.58470 15.68977 15093 ft 367 kts 158°
2026-05-08 17:33 46.56125 15.70488 15688 ft 371 kts 158°
2026-05-08 17:33 46.53758 15.72009 16293 ft 374 kts 158°
2026-05-08 17:33 46.51358 15.73546 16893 ft 378 kts 158°
2026-05-08 17:33 46.48971 15.75075 17495 ft 381 kts 157°
2026-05-08 17:34 46.46536 15.76638 18085 ft 385 kts 157°
2026-05-08 17:34 46.44074 15.78218 18630 ft 388 kts 157°
2026-05-08 17:34 46.41592 15.79808 19163 ft 391 kts 157°
2026-05-08 17:34 46.39096 15.81406 19698 ft 393 kts 158°
2026-05-08 17:35 46.36586 15.83013 20251 ft 396 kts 158°
2026-05-08 17:35 46.34060 15.84629 20799 ft 398 kts 158°
2026-05-08 17:35 46.31520 15.86251 21328 ft 401 kts 158°
2026-05-08 17:35 46.28957 15.87881 21853 ft 403 kts 158°
2026-05-08 17:36 46.26382 15.89512 22359 ft 405 kts 158°
2026-05-08 17:36 46.23789 15.91150 22871 ft 407 kts 158°
2026-05-08 17:36 46.21183 15.92797 23359 ft 410 kts 158°
2026-05-08 17:36 46.18565 15.94455 23778 ft 412 kts 158°
2026-05-08 17:37 46.15927 15.96129 24152 ft 415 kts 158°
2026-05-08 17:37 46.13282 15.97807 24528 ft 417 kts 159°
2026-05-08 17:37 46.10650 15.99472 24885 ft 419 kts 159°
2026-05-08 17:37 46.07975 16.01162 25235 ft 422 kts 159°
2026-05-08 17:38 46.05237 16.02892 25596 ft 424 kts 159°
2026-05-08 17:38 46.02569 16.04575 25903 ft 426 kts 159°
2026-05-08 17:38 45.99799 16.06315 26232 ft 429 kts 159°
2026-05-08 17:38 45.97053 16.08038 26559 ft 431 kts 159°
2026-05-08 17:39 45.94295 16.09766 26893 ft 434 kts 159°
2026-05-08 17:39 45.91559 16.11483 27199 ft 436 kts 160°
2026-05-08 17:39 45.88775 16.13231 27515 ft 438 kts 160°
2026-05-08 17:39 45.85974 16.14985 27820 ft 440 kts 160°
2026-05-08 17:40 45.83162 16.16742 28119 ft 442 kts 160°
2026-05-08 17:40 45.80332 16.18508 28411 ft 444 kts 160°
2026-05-08 17:40 45.77489 16.20282 28699 ft 446 kts 160°
2026-05-08 17:40 45.74631 16.22057 28974 ft 448 kts 160°
2026-05-08 17:41 45.71771 16.23829 29237 ft 450 kts 160°
2026-05-08 17:41 45.68894 16.25613 29494 ft 452 kts 160°
2026-05-08 17:41 45.66003 16.27411 29729 ft 453 kts 160°
2026-05-08 17:41 45.63105 16.29214 29979 ft 455 kts 160°
2026-05-08 17:42 45.60200 16.31018 30217 ft 456 kts 160°
2026-05-08 17:42 45.57335 16.32796 30515 ft 454 kts 160°
2026-05-08 17:42 45.54442 16.34589 30818 ft 453 kts 160°
2026-05-08 17:42 45.51557 16.36375 31135 ft 451 kts 160°
2026-05-08 17:43 45.48686 16.38147 31454 ft 449 kts 160°
2026-05-08 17:43 45.45822 16.39912 31771 ft 448 kts 160°
2026-05-08 17:43 45.42962 16.41670 32094 ft 446 kts 160°
2026-05-08 17:43 45.40118 16.43416 32418 ft 444 kts 160°
2026-05-08 17:44 45.37283 16.45156 32743 ft 443 kts 160°
2026-05-08 17:44 45.34462 16.46888 33020 ft 441 kts 160°
2026-05-08 17:44 45.31648 16.48614 33340 ft 440 kts 160°
2026-05-08 17:44 45.28837 16.50334 33661 ft 438 kts 160°
2026-05-08 17:45 45.26043 16.52035 33980 ft 436 kts 160°
2026-05-08 17:45 45.23249 16.53731 34248 ft 436 kts 160°
2026-05-08 17:45 45.20464 16.55425 34476 ft 436 kts 160°
2026-05-08 17:45 45.17674 16.57125 34678 ft 436 kts 160°
2026-05-08 17:46 45.14886 16.58826 34865 ft 437 kts 160°
2026-05-08 17:46 45.12090 16.60532 35002 ft 439 kts 160°
2026-05-08 17:46 45.06469 16.63953 35038 ft 440 kts 160°
2026-05-08 17:47 45.00842 16.67362 35029 ft 440 kts 161°
2026-05-08 17:47 44.96165 16.70189 35044 ft 440 kts 160°
2026-05-08 17:48 44.89620 16.74141 35047 ft 441 kts 160°
2026-05-08 17:48 44.83981 16.77536 35051 ft 441 kts 160°
2026-05-08 17:49 44.78342 16.80924 35055 ft 441 kts 160°
2026-05-08 17:49 44.72693 16.84311 35060 ft 441 kts 160°
2026-05-08 17:50 44.67047 16.87682 35039 ft 441 kts 160°
2026-05-08 17:50 44.61392 16.91048 35041 ft 442 kts 160°
2026-05-08 17:51 44.55739 16.94426 35039 ft 442 kts 160°
2026-05-08 17:51 44.50083 16.97797 35044 ft 442 kts 160°
2026-05-08 17:52 44.44419 17.01168 35044 ft 442 kts 160°
2026-05-08 17:53 44.35941 17.06168 35039 ft 443 kts 160°
2026-05-08 17:53 44.30266 17.09499 35050 ft 443 kts 160°
2026-05-08 17:54 44.24586 17.12840 35049 ft 443 kts 160°
2026-05-08 17:54 44.19834 17.15637 35050 ft 443 kts 160°
2026-05-08 17:55 44.14194 17.18952 35064 ft 443 kts 160°
2026-05-08 17:55 44.08515 17.22272 35068 ft 442 kts 160°
2026-05-08 17:56 44.02841 17.25586 35038 ft 443 kts 160°
2026-05-08 17:56 43.97146 17.28903 35023 ft 443 kts 160°
2026-05-08 17:57 43.91451 17.32213 35038 ft 444 kts 160°
2026-05-08 17:57 43.85750 17.35526 35033 ft 444 kts 160°
2026-05-08 17:58 43.80041 17.38834 35034 ft 445 kts 160°
2026-05-08 17:58 43.74323 17.42133 34942 ft 446 kts 160°
2026-05-08 17:58 43.71449 17.43794 34027 ft 451 kts 160°
2026-05-08 17:59 43.68543 17.45473 32996 ft 454 kts 160°
2026-05-08 17:59 43.65627 17.47156 32016 ft 455 kts 160°
2026-05-08 17:59 43.62695 17.48843 31023 ft 458 kts 160°
2026-05-08 17:59 43.59793 17.50508 30248 ft 456 kts 160°
2026-05-08 18:00 43.56842 17.52200 29570 ft 451 kts 160°
2026-05-08 18:00 43.51129 17.55484 28298 ft 438 kts 160°
2026-05-08 18:00 43.48361 17.57074 27672 ft 434 kts 160°
2026-05-08 18:01 43.45586 17.58666 27061 ft 431 kts 160°
2026-05-08 18:01 43.42827 17.60241 26443 ft 427 kts 160°
2026-05-08 18:01 43.40089 17.61797 25836 ft 424 kts 160°
2026-05-08 18:01 43.37371 17.63343 25236 ft 422 kts 159°
2026-05-08 18:02 43.34666 17.64879 24642 ft 419 kts 159°
2026-05-08 18:02 43.31980 17.66399 24062 ft 416 kts 159°
2026-05-08 18:02 43.29309 17.67911 23471 ft 414 kts 159°